Preview of NWS' New Version of Forecast
This preview is not operational and should not be used for support decisions.

Regional Weather Roundup (RWR)

Issued by National Weather Service (NWS)

                            
000
ASUS45 KABQ 231901
RWRNM 
NEW MEXICO REGIONAL WEATHER ROUNDUP
NATIONAL WEATHER SERVICE ALBUQUERQUE NM
100 PM MDT TUE APR 23 2019

NOTE: "FAIR" MEANS FEW OR NO CLOUDS BELOW 12,000 FEET AGL WITH NO
       SIGNIFICANT WEATHER OR OBSTRUCTIONS TO VISION.

      THIS PRODUCT IS RELEASED AS TWO VERSIONS.  ONE VERSION NEAR
      THE TOP OF THE HOUR CONTAINING PRELIMINARY DATA FROM ALBUQUERQUE
      AND OTHER STATIONS.  A FINAL VERSION WITH ADDITIONAL DATA IS 
      ISSUED ABOUT 10 MINUTES AFTER THE HOUR.
 
NMZ501-503-504-510>518-232000-
NORTHWEST PLATEAU/NORTHCENTRAL MOUNTAINS
  
CITY           SKY/WX    TMP DP  RH WIND       PRES   REMARKS
FARMINGTON     PTSUNNY   56  44  64 E12G18    30.13F                  
LOS ALAMOS       N/A     44  38  77 S3        30.18F                  
SANTA FE       CLOUDY    49  42  77 CALM      30.15F                  
TAOS           FAIR      50  37  61 VRB6      30.18F                  
ANGEL FIRE       N/A     40  34  80 CALM      30.21F                  

$$
NMZ402-403-502-505>509-232000-
WESTCENTRAL MOUNTAINS/SOUTHWEST MOUNTAINS
  
CITY           SKY/WX    TMP DP  RH WIND       PRES   REMARKS
GALLUP         LGT RAIN  50  38  63 N7        30.12F                  
GRANTS         FAIR      54  40  60 SE13G21   30.14F                  
SILVER CITY    FAIR      63  35  35 S3G10     30.02F                  

$$
NMZ407-409-411-412-232000-
SOUTHERN DESERTS
  
CITY           SKY/WX    TMP DP  RH WIND       PRES   REMARKS
DEMING         FAIR      71  40  32 SE10G21   29.98F                  
ALAMOGORDO     FAIR      66  46  48 W3        30.02F                  
T OR C         FAIR      69  34  27 CALM      30.02F                  

$$
NMZ519>523-232000-
CENTRAL VALLEYS/CENTRAL HIGHLANDS
  
CITY           SKY/WX    TMP DP  RH WIND       PRES   REMARKS
ALBUQUERQUE    LGT RAIN  52  47  83 W9        30.11F                  
DOUBLE EAGLE   CLOUDY    52  43  71 SE8       30.13F                  
MORIARTY ARPT  CLOUDY    55  46  70 E17       30.16F                  
CLINES CORNERS FOG       42  40  92 E14       30.18F VSB<1/4          
BELEN          MOCLDY    58  42  54 CALM      30.10F                  
SOCORRO        NOT AVBL                                               

$$
NMZ524>526-539-540-232000-
SOUTHCENTRAL MOUNTAINS
  
CITY           SKY/WX    TMP DP  RH WIND       PRES   REMARKS
RUIDOSO        FAIR      50  41  71 SE15      30.16F                  

$$
NMZ527>531-232000-
NORTHEAST HIGHLANDS/NORTHEAST PLAINS
  
CITY           SKY/WX    TMP DP  RH WIND       PRES   REMARKS
LAS VEGAS      RAIN      41  40  96 E7        30.19F FOG              
RATON          LGT RAIN  43  39  86 SE3       30.18F                  
CLAYTON        LGT RAIN  47  35  63 NE7       30.17R                  

$$
NMZ532>537-232000-
EASTCENTRAL PLAINS
  
CITY           SKY/WX    TMP DP  RH WIND       PRES   REMARKS
SANTA ROSA     CLOUDY    50  46  84 NE5       30.15F                  
TUCUMCARI      CLOUDY    56  44  64 NE10      30.12F                  
CANNON AFB     NOT AVBL                                               
CLOVIS AIRPORT CLOUDY    51  49  92 NE14      30.13F FOG              

$$
NMZ028-029-538-232000-
SOUTHEAST PLAINS
  
CITY           SKY/WX    TMP DP  RH WIND       PRES   REMARKS
ROSWELL        CLOUDY    62  50  64 NE10      30.08F                  
ARTESIA        CLOUDY    61  54  77 N13       30.08F                  
CARLSBAD       CLOUDY    62  51  67 N13       30.05F                  
HOBBS          CLOUDY    61  52  72 NE8       30.07F                  


$$